| time (UTC) | temp F | wind direction | speed MPH | gust MPH | rain 1hr in | rain 24hr in | rain mn in | humidity % | barometer mb |
| 20260904234356 | 74 | 105 | 0.0 | 0.0 | 0.00 | 0.09 | 0.09 | 90 | 1014.3 |
| 20260904233852 | 74 | 273 | 0.0 | 0.0 | 0.00 | 0.09 | 0.09 | 89 | 1014.5 |
| 20260904233348 | 75 | 273 | 1.0 | 1.0 | 0.00 | 0.09 | 0.09 | 88 | 1014.8 |
| 20260904232844 | 75 | 273 | 0.0 | 0.0 | 0.00 | 0.09 | 0.09 | 88 | 1014.8 |
| 20260904232341 | 75 | 273 | 0.0 | 0.0 | 0.00 | 0.09 | 0.09 | 88 | 1015.1 |
| 20260904231836 | 75 | 273 | 0.0 | 0.0 | 0.00 | 0.09 | 0.09 | 88 | 1015.2 |
| 20260904231331 | 75 | 273 | 0.0 | 1.0 | 0.00 | 0.09 | 0.09 | 87 | 1015.2 |
| 20260904230826 | 76 | 273 | 1.0 | 1.0 | 0.00 | 0.09 | 0.09 | 85 | 1015.2 |
| 20260904230325 | 76 | 273 | 0.0 | 0.0 | 0.00 | 0.09 | 0.09 | 84 | 1015.0 |
| 20260904225820 | 76 | 273 | 0.0 | 0.0 | 0.00 | 0.09 | 0.09 | 85 | 1015.0 |
| 20260904225318 | 76 | 273 | 0.0 | 0.0 | 0.00 | 0.09 | 0.09 | 85 | 1014.7 |
| 20260904224817 | 76 | 273 | 0.0 | 1.0 | 0.00 | 0.09 | 0.09 | 85 | 1014.7 |
| 20260904224314 | 77 | 273 | 0.0 | 1.0 | 0.00 | 0.09 | 0.09 | 85 | 1014.6 |
| 20260904223813 | 77 | 273 | 0.0 | 1.0 | 0.00 | 0.09 | 0.09 | 83 | 1014.7 |
| 20260904223307 | 77 | 273 | 0.0 | 0.0 | 0.00 | 0.09 | 0.09 | 82 | 1014.6 |
| 20260904222804 | 77 | 273 | 0.0 | 0.0 | 0.00 | 0.09 | 0.09 | 82 | 1014.5 |
| 20260904222259 | 77 | 272 | 0.0 | 0.0 | 0.00 | 0.09 | 0.09 | 81 | 1014.4 |
| 20260904221758 | 77 | 320 | 0.0 | 0.0 | 0.00 | 0.09 | 0.09 | 82 | 1014.4 |
| 20260904221253 | 78 | 320 | 0.0 | 1.0 | 0.00 | 0.09 | 0.09 | 81 | 1014.3 |
| 20260904220749 | 78 | 320 | 0.0 | 0.0 | 0.00 | 0.09 | 0.09 | 81 | 1014.1 |
| 20260904220247 | 77 | 320 | 0.0 | 1.0 | 0.00 | 0.09 | 0.09 | 79 | 1013.9 |
| 20260904215743 | 78 | 104 | 1.0 | 1.0 | 0.00 | 0.09 | 0.09 | 79 | 1013.9 |
| 20260904215238 | 77 | 105 | 0.0 | 1.0 | 0.00 | 0.09 | 0.09 | 79 | 1013.9 |
| 20260904214734 | 77 | 269 | 0.0 | 1.0 | 0.00 | 0.09 | 0.09 | 79 | 1013.9 |
| 20260904214229 | 77 | 66 | 0.0 | 1.0 | 0.00 | 0.09 | 0.09 | 79 | 1013.8 |
| 20260904213727 | 77 | 135 | 2.0 | 1.0 | 0.00 | 0.09 | 0.09 | 79 | 1013.7 |
| 20260904213224 | 77 | 270 | 3.0 | 5.0 | 0.00 | 0.09 | 0.09 | 79 | 1013.8 |
| 20260904212719 | 77 | 248 | 1.0 | 4.0 | 0.00 | 0.09 | 0.09 | 80 | 1013.7 |
| 20260904212214 | 77 | 160 | 0.0 | 1.0 | 0.00 | 0.09 | 0.09 | 79 | 1013.5 |
| 20260904211714 | 77 | 229 | 1.0 | 1.0 | 0.00 | 0.09 | 0.09 | 79 | 1013.5 |
| 20260904211208 | 78 | 310 | 3.0 | 3.0 | 0.00 | 0.09 | 0.09 | 79 | 1013.4 |
| 20260904210703 | 78 | 223 | 0.0 | 4.0 | 0.00 | 0.09 | 0.09 | 77 | 1013.2 |
| 20260904210158 | 78 | 288 | 0.0 | 1.0 | 0.00 | 0.09 | 0.09 | 79 | 1013.3 |
| 20260904205654 | 78 | 145 | 0.0 | 1.0 | 0.00 | 0.09 | 0.09 | 79 | 1013.3 |
| 20260904205150 | 78 | 137 | 2.0 | 3.0 | 0.00 | 0.09 | 0.09 | 78 | 1012.9 |
| 20260904204646 | 78 | 193 | 1.0 | 3.0 | 0.00 | 0.09 | 0.09 | 78 | 1013.3 |
| 20260904204142 | 78 | 226 | 3.0 | 4.0 | 0.00 | 0.09 | 0.09 | 75 | 1013.3 |
| 20260904203637 | 78 | 131 | 0.0 | 3.0 | 0.00 | 0.09 | 0.09 | 74 | 1013.3 |
| 20260904203134 | 79 | 256 | 2.0 | 3.0 | 0.00 | 0.09 | 0.09 | 72 | 1013.8 |
| 20260904202630 | 80 | 158 | 5.0 | 5.0 | 0.00 | 0.09 | 0.09 | 72 | 1013.8 |
| 20260904202126 | 79 | 174 | 3.0 | 4.0 | 0.00 | 0.09 | 0.09 | 74 | 1013.9 |
| 20260904201626 | 80 | 63 | 2.0 | 3.0 | 0.00 | 0.09 | 0.09 | 74 | 1014.1 |
| 20260904201121 | 79 | 51 | 1.0 | 3.0 | 0.00 | 0.09 | 0.09 | 73 | 1014.1 |
| 20260904200615 | 80 | 87 | 1.0 | 3.0 | 0.00 | 0.09 | 0.09 | 73 | 1014.3 |
| 20260904200110 | 79 | 15 | 2.0 | 4.0 | 0.00 | 0.09 | 0.09 | 73 | 1014.3 |
| 20260904195609 | 79 | 345 | 1.0 | 3.0 | 0.00 | 0.09 | 0.09 | 74 | 1014.6 |
| 20260904195107 | 80 | 345 | 2.0 | 3.0 | 0.00 | 0.09 | 0.09 | 72 | 1014.6 |
| 20260904194602 | 79 | 300 | 2.0 | 4.0 | 0.00 | 0.09 | 0.09 | 75 | 1014.7 |
| 20260904194057 | 78 | 339 | 3.0 | 4.0 | 0.00 | 0.09 | 0.09 | 77 | 1014.8 |
| 20260904193551 | 77 | 252 | 3.0 | 3.0 | 0.00 | 0.09 | 0.09 | 76 | 1015.2 |
| 20260904193048 | 77 | 4 | 3.0 | 5.0 | 0.00 | 0.09 | 0.09 | 78 | 1015.1 |
| 20260904192548 | 78 | 349 | 1.0 | 4.0 | 0.00 | 0.09 | 0.09 | 78 | 1015.0 |
| 20260904192043 | 78 | 342 | 3.0 | 4.0 | 0.00 | 0.09 | 0.09 | 80 | 1014.9 |
| 20260904191540 | 78 | 265 | 2.0 | 4.0 | 0.00 | 0.09 | 0.09 | 78 | 1014.7 |
| 20260904191036 | 77 | 42 | 0.0 | 3.0 | 0.00 | 0.09 | 0.09 | 81 | 1014.7 |
| 20260904190532 | 77 | 277 | 2.0 | 3.0 | 0.00 | 0.09 | 0.09 | 82 | 1014.9 |
| 20260904190028 | 76 | 227 | 0.0 | 1.0 | 0.00 | 0.09 | 0.09 | 83 | 1014.9 |
| 20260904185524 | 77 | 257 | 2.0 | 4.0 | 0.00 | 0.09 | 0.09 | 81 | 1015.2 |
| 20260904185018 | 77 | 344 | 0.0 | 1.0 | 0.00 | 0.09 | 0.09 | 80 | 1015.1 |
| 20260904184513 | 77 | 20 | 0.0 | 5.0 | 0.00 | 0.09 | 0.09 | 80 | 1015.2 |
| 20260904184008 | 77 | 8 | 0.0 | 3.0 | 0.00 | 0.09 | 0.09 | 79 | 1015.0 |
| 20260904183503 | 78 | 7 | 1.0 | 3.0 | 0.00 | 0.09 | 0.09 | 79 | 1015.5 |
| 20260904182958 | 79 | 47 | 0.0 | 3.0 | 0.00 | 0.09 | 0.09 | 78 | 1015.7 |
| 20260904182454 | 79 | 31 | 1.0 | 3.0 | 0.00 | 0.09 | 0.09 | 78 | 1015.6 |
| 20260904181953 | 77 | 17 | 4.0 | 5.0 | 0.00 | 0.09 | 0.09 | 81 | 1016.0 |
| 20260904181449 | 77 | 7 | 5.0 | 7.0 | 0.00 | 0.09 | 0.09 | 80 | 1016.2 |
| 20260904180944 | 77 | 348 | 3.0 | 7.0 | 0.00 | 0.09 | 0.09 | 83 | 1016.4 |
| 20260904180438 | 77 | 271 | 3.0 | 5.0 | 0.00 | 0.09 | 0.09 | 81 | 1016.4 |
| 20260904175938 | 76 | 45 | 0.0 | 5.0 | 0.00 | 0.09 | 0.09 | 84 | 1016.4 |
| 20260904175437 | 75 | 356 | 6.0 | 10.0 | 0.00 | 0.09 | 0.09 | 83 | 1016.5 |
| 20260904174932 | 75 | 223 | 5.0 | 8.0 | 0.00 | 0.09 | 0.09 | 85 | 1016.5 |
| 20260904174427 | 76 | 336 | 9.0 | 11.0 | 0.00 | 0.09 | 0.09 | 83 | 1016.9 |
| 20260904173923 | 77 | 311 | 3.0 | 10.0 | 0.00 | 0.09 | 0.09 | 83 | 1016.9 |
| 20260904173413 | 77 | 343 | 1.0 | 3.0 | 0.00 | 0.09 | 0.09 | 85 | 1016.6 |
| 20260904172908 | 75 | 349 | 3.0 | 4.0 | 0.00 | 0.09 | 0.09 | 86 | 1016.6 |
| 20260904172402 | 75 | 334 | 1.0 | 4.0 | 0.00 | 0.09 | 0.09 | 88 | 1016.9 |
| 20260904171857 | 75 | 339 | 2.0 | 3.0 | 0.00 | 0.09 | 0.09 | 89 | 1016.6 |
| 20260904171352 | 75 | 18 | 2.0 | 4.0 | 0.00 | 0.09 | 0.09 | 89 | 1016.6 |
| 20260904170849 | 76 | 331 | 6.0 | 8.0 | 0.00 | 0.09 | 0.09 | 86 | 1016.7 |
| 20260904170344 | 75 | 6 | 1.0 | 1.0 | 0.00 | 0.09 | 0.09 | 88 | 1016.9 |
| 20260904165838 | 75 | 358 | 1.0 | 3.0 | 0.00 | 0.09 | 0.09 | 88 | 1016.9 |
| 20260904165337 | 75 | 356 | 0.0 | 1.0 | 0.00 | 0.09 | 0.09 | 90 | 1016.7 |
| 20260904164832 | 75 | 2 | 2.0 | 1.0 | 0.00 | 0.09 | 0.09 | 89 | 1016.7 |
| 20260904164326 | 75 | 21 | 2.0 | 4.0 | 0.00 | 0.09 | 0.09 | 88 | 1017.0 |
| 20260904163824 | 75 | 6 | 7.0 | 8.0 | 0.00 | 0.09 | 0.09 | 87 | 1017.0 |
| 20260904163323 | 75 | 334 | 5.0 | 7.0 | 0.00 | 0.09 | 0.09 | 88 | 1017.3 |
| 20260904162822 | 76 | 281 | 6.0 | 7.0 | 0.00 | 0.09 | 0.09 | 87 | 1017.0 |
| 20260904162318 | 75 | 300 | 3.0 | 5.0 | 0.00 | 0.09 | 0.09 | 90 | 1017.1 |
| 20260904161814 | 75 | 34 | 3.0 | 5.0 | 0.00 | 0.09 | 0.09 | 90 | 1016.9 |
| 20260904161314 | 75 | 4 | 5.0 | 5.0 | 0.00 | 0.09 | 0.09 | 90 | 1016.7 |
| 20260904160809 | 74 | 293 | 1.0 | 3.0 | 0.00 | 0.09 | 0.09 | 93 | 1016.4 |
| 20260904160304 | 73 | 169 | 3.0 | 5.0 | 0.00 | 0.09 | 0.09 | 95 | 1016.3 |
| 20260904155758 | 73 | 128 | 3.0 | 4.0 | 0.00 | 0.09 | 0.09 | 94 | 1016.4 |
| 20260904155258 | 72 | 157 | 2.0 | 4.0 | 0.00 | 0.09 | 0.09 | 95 | 1016.3 |
| 20260904154756 | 72 | 153 | 4.0 | 7.0 | 0.00 | 0.09 | 0.09 | 96 | 1016.0 |
| 20260904154252 | 71 | 121 | 3.0 | 3.0 | 0.00 | 0.09 | 0.09 | 98 | 1016.4 |
| 20260904153747 | 71 | 137 | 4.0 | 4.0 | 0.00 | 0.09 | 0.09 | 98 | 1016.6 |
| 20260904153243 | 71 | 57 | 1.0 | 1.0 | 0.00 | 0.09 | 0.09 | 98 | 1016.7 |
| 20260904152739 | 71 | 56 | 1.0 | 1.0 | 0.00 | 0.09 | 0.09 | 98 | 1016.9 |
| 20260904152234 | 70 | 56 | 1.0 | 3.0 | 0.07 | 0.09 | 0.09 | 98 | 1016.9 |
| 20260904151729 | 70 | 64 | 1.0 | 1.0 | 0.07 | 0.09 | 0.09 | 98 | 1016.9 |
| 20260904151228 | 70 | 62 | 0.0 | 0.0 | 0.07 | 0.08 | 0.08 | 98 | 1016.9 |
| 20260904150724 | 70 | 62 | 0.0 | 1.0 | 0.12 | 0.08 | 0.08 | 98 | 1016.9 |
| 20260904150219 | 70 | 115 | 0.0 | 1.0 | 0.12 | 0.07 | 0.07 | 98 | 1017.2 |
| 20260904145717 | 70 | 119 | 1.0 | 3.0 | 0.19 | 0.06 | 0.06 | 97 | 1017.2 |
| 20260904145213 | 70 | 58 | 0.0 | 1.0 | 0.12 | 0.04 | 0.04 | 97 | 1017.4 |
| 20260904144708 | 70 | 39 | 1.0 | 1.0 | 0.05 | 0.03 | 0.03 | 97 | 1017.3 |
| 20260904144204 | 70 | 24 | 0.0 | 0.0 | 0.07 | 0.02 | 0.02 | 97 | 1017.3 |
| 20260904143659 | 70 | 20 | 2.0 | 3.0 | 0.07 | 0.02 | 0.02 | 97 | 1017.1 |
| 20260904143156 | 70 | 2 | 0.0 | 0.0 | 0.00 | 0.01 | 0.01 | 97 | 1017.3 |
| 20260904142652 | 70 | 28 | 1.0 | 1.0 | 0.00 | 0.01 | 0.01 | 97 | 1017.0 |
| 20260904142148 | 70 | 20 | 0.0 | 0.0 | 0.00 | 0.01 | 0.01 | 97 | 1017.3 |
| 20260904141643 | 70 | 33 | 1.0 | 1.0 | 0.00 | 0.01 | 0.01 | 98 | 1017.3 |
| 20260904141138 | 71 | 25 | 1.0 | 0.0 | 0.00 | 0.01 | 0.01 | 98 | 1017.1 |
| 20260904140634 | 70 | 12 | 0.0 | 1.0 | 0.00 | 0.01 | 0.01 | 98 | 1017.1 |
| 20260904140133 | 70 | 8 | 0.0 | 1.0 | 0.00 | 0.01 | 0.01 | 98 | 1017.1 |
| 20260904135627 | 71 | 9 | 1.0 | 1.0 | 0.00 | 0.01 | 0.01 | 98 | 1017.0 |
| 20260904135123 | 70 | 9 | 0.0 | 1.0 | 0.00 | 0.01 | 0.01 | 99 | 1016.7 |
| 20260904134619 | 70 | 3 | 0.0 | 0.0 | 0.00 | 0.01 | 0.01 | 99 | 1016.6 |
| 20260904134117 | 70 | 341 | 2.0 | 1.0 | 0.00 | 0.01 | 0.01 | 99 | 1016.5 |
| 20260904133613 | 70 | 156 | 1.0 | 1.0 | 0.00 | 0.01 | 0.01 | 99 | 1016.3 |
| 20260904133109 | 70 | 127 | 1.0 | 1.0 | 0.00 | 0.01 | 0.01 | 99 | 1016.2 |
| 20260904132608 | 69 | 126 | 1.0 | 1.0 | 0.00 | 0.01 | 0.01 | 99 | 1016.1 |
| 20260904132103 | 69 | 126 | 0.0 | 0.0 | 0.00 | 0.01 | 0.01 | 99 | 1016.2 |
| 20260904131603 | 69 | 125 | 0.0 | 1.0 | 0.00 | 0.01 | 0.01 | 99 | 1016.0 |
| 20260904131058 | 69 | 112 | 0.0 | 0.0 | 0.00 | 0.01 | 0.01 | 99 | 1016.2 |
| 20260904130558 | 69 | 112 | 1.0 | 1.0 | 0.00 | 0.01 | 0.01 | 99 | 1016.4 |
| 20260904130053 | 69 | 113 | 0.0 | 0.0 | 0.00 | 0.01 | 0.01 | 99 | 1016.4 |
| 20260904125549 | 68 | 113 | 0.0 | 1.0 | 0.00 | 0.01 | 0.01 | 99 | 1016.1 |
| 20260904125044 | 69 | 112 | 2.0 | 3.0 | 0.00 | 0.01 | 0.01 | 99 | 1016.0 |
| 20260904124539 | 68 | 110 | 0.0 | 0.0 | 0.00 | 0.01 | 0.01 | 99 | 1016.2 |
| 20260904124034 | 68 | 109 | 1.0 | 3.0 | 0.00 | 0.01 | 0.01 | 99 | 1016.3 |
| 20260904123529 | 68 | 108 | 2.0 | 1.0 | 0.00 | 0.01 | 0.01 | 99 | 1016.0 |
| 20260904123024 | 68 | 108 | 2.0 | 1.0 | 0.00 | 0.01 | 0.01 | 99 | 1016.3 |
| 20260904122519 | 68 | 224 | 1.0 | 4.0 | 0.00 | 0.01 | 0.01 | 99 | 1016.3 |
| 20260904122014 | 68 | 110 | 1.0 | 3.0 | 0.00 | 0.01 | 0.01 | 99 | 1016.3 |
| 20260904121509 | 68 | 111 | 0.0 | 1.0 | 0.00 | 0.01 | 0.01 | 99 | 1016.1 |
| 20260904121005 | 68 | 128 | 0.0 | 0.0 | 0.00 | 0.01 | 0.01 | 99 | 1016.4 |
| 20260904120501 | 67 | 126 | 1.0 | 3.0 | 0.00 | 0.01 | 0.01 | 99 | 1016.4 |
| 20260904115955 | 67 | 51 | 0.0 | 0.0 | 0.00 | 0.01 | 0.01 | 99 | 1016.4 |
| 20260904115451 | 67 | 50 | 0.0 | 0.0 | 0.00 | 0.01 | 0.01 | 99 | 1016.5 |
| 20260904114951 | 67 | 50 | 1.0 | 1.0 | 0.00 | 0.01 | 0.01 | 99 | 1016.5 |
| 20260904114446 | 66 | 101 | 0.0 | 0.0 | 0.00 | 0.01 | 0.01 | 99 | 1016.4 |
| 20260904113941 | 66 | 101 | 0.0 | 0.0 | 0.00 | 0.01 | 0.01 | 99 | 1016.2 |
| 20260904113440 | 66 | 101 | 1.0 | 1.0 | 0.00 | 0.01 | 0.01 | 99 | 1016.3 |
| 20260904112940 | 66 | 101 | 1.0 | 1.0 | 0.00 | 0.01 | 0.01 | 99 | 1016.3 |
| 20260904112436 | 66 | 102 | 0.0 | 0.0 | 0.00 | 0.01 | 0.01 | 99 | 1016.2 |
| 20260904111931 | 66 | 100 | 1.0 | 1.0 | 0.00 | 0.01 | 0.01 | 99 | 1016.2 |
| 20260904111427 | 66 | 102 | 1.0 | 3.0 | 0.00 | 0.01 | 0.01 | 99 | 1016.2 |
| 20260904110923 | 65 | 67 | 0.0 | 0.0 | 0.00 | 0.01 | 0.01 | 99 | 1016.1 |
| 20260904110421 | 65 | 68 | 1.0 | 1.0 | 0.00 | 0.01 | 0.01 | 99 | 1016.0 |
| 20260904105917 | 65 | 33 | 0.0 | 0.0 | 0.00 | 0.01 | 0.01 | 99 | 1016.3 |
| 20260904105412 | 65 | 33 | 0.0 | 0.0 | 0.00 | 0.01 | 0.01 | 99 | 1016.0 |
| 20260904104907 | 65 | 33 | 0.0 | 0.0 | 0.00 | 0.01 | 0.01 | 99 | 1016.1 |
| 20260904104401 | 65 | 33 | 0.0 | 0.0 | 0.00 | 0.01 | 0.01 | 99 | 1015.9 |
| 20260904103859 | 66 | 33 | 0.0 | 0.0 | 0.00 | 0.01 | 0.01 | 99 | 1015.9 |
| 20260904103358 | 66 | 33 | 1.0 | 1.0 | 0.00 | 0.01 | 0.01 | 99 | 1015.5 |
| 20260904102854 | 66 | 33 | 0.0 | 1.0 | 0.00 | 0.01 | 0.01 | 99 | 1015.2 |
| 20260904102349 | 66 | 33 | 0.0 | 0.0 | 0.00 | 0.01 | 0.01 | 99 | 1015.4 |
| 20260904101845 | 66 | 33 | 0.0 | 0.0 | 0.00 | 0.01 | 0.01 | 99 | 1015.9 |
| 20260904101342 | 66 | 33 | 0.0 | 0.0 | 0.00 | 0.01 | 0.01 | 99 | 1015.8 |
| 20260904100837 | 66 | 33 | 0.0 | 0.0 | 0.00 | 0.01 | 0.01 | 99 | 1015.9 |
| 20260904100333 | 66 | 33 | 0.0 | 0.0 | 0.00 | 0.01 | 0.01 | 99 | 1015.9 |
| 20260904095828 | 66 | 33 | 0.0 | 0.0 | 0.00 | 0.01 | 0.01 | 99 | 1016.1 |
| 20260904095322 | 66 | 33 | 0.0 | 0.0 | 0.00 | 0.01 | 0.01 | 99 | 1016.2 |
| 20260904094817 | 65 | 33 | 0.0 | 0.0 | 0.00 | 0.01 | 0.01 | 99 | 1016.1 |
| 20260904094312 | 66 | 33 | 0.0 | 0.0 | 0.00 | 0.01 | 0.01 | 99 | 1015.9 |
| 20260904093808 | 66 | 32 | 0.0 | 0.0 | 0.00 | 0.01 | 0.01 | 99 | 1015.7 |
| 20260904093303 | 66 | 33 | 0.0 | 0.0 | 0.00 | 0.01 | 0.01 | 99 | 1015.6 |
| 20260904092758 | 66 | 33 | 0.0 | 0.0 | 0.00 | 0.01 | 0.01 | 99 | 1015.7 |
| 20260904092255 | 66 | 33 | 0.0 | 0.0 | 0.00 | 0.01 | 0.01 | 99 | 1015.7 |
| 20260904091751 | 66 | 33 | 0.0 | 0.0 | 0.00 | 0.01 | 0.01 | 99 | 1015.7 |
| 20260904091245 | 66 | 32 | 0.0 | 0.0 | 0.00 | 0.01 | 0.01 | 99 | 1015.6 |
| 20260904090741 | 66 | 32 | 0.0 | 0.0 | 0.00 | 0.01 | 0.01 | 99 | 1015.6 |
| 20260904090236 | 66 | 32 | 0.0 | 0.0 | 0.00 | 0.01 | 0.01 | 99 | 1015.6 |
| 20260904085730 | 66 | 32 | 1.0 | 1.0 | 0.00 | 0.01 | 0.01 | 99 | 1015.5 |
| 20260904085226 | 66 | 32 | 2.0 | 3.0 | 0.00 | 0.01 | 0.01 | 99 | 1015.5 |
| 20260904084720 | 66 | 33 | 0.0 | 0.0 | 0.00 | 0.01 | 0.01 | 99 | 1015.3 |
| 20260904084216 | 66 | 33 | 0.0 | 0.0 | 0.00 | 0.01 | 0.01 | 99 | 1015.3 |
| 20260904083712 | 66 | 33 | 1.0 | 1.0 | 0.00 | 0.01 | 0.01 | 99 | 1015.3 |
| 20260904083209 | 66 | 33 | 0.0 | 0.0 | 0.00 | 0.01 | 0.01 | 99 | 1015.1 |
| 20260904082703 | 67 | 33 | 0.0 | 0.0 | 0.00 | 0.01 | 0.01 | 99 | 1015.5 |
| 20260904082158 | 67 | 33 | 0.0 | 0.0 | 0.00 | 0.01 | 0.01 | 99 | 1015.5 |
| 20260904081654 | 67 | 33 | 0.0 | 0.0 | 0.00 | 0.01 | 0.01 | 99 | 1015.7 |
| 20260904081149 | 67 | 33 | 0.0 | 0.0 | 0.00 | 0.01 | 0.01 | 99 | 1015.6 |
| 20260904080644 | 67 | 33 | 0.0 | 0.0 | 0.00 | 0.01 | 0.01 | 99 | 1015.6 |
| 20260904080140 | 67 | 33 | 0.0 | 0.0 | 0.00 | 0.01 | 0.01 | 99 | 1015.7 |
| 20260904075636 | 67 | 33 | 0.0 | 0.0 | 0.00 | 0.01 | 0.01 | 99 | 1015.7 |
| 20260904075131 | 67 | 32 | 0.0 | 0.0 | 0.00 | 0.01 | 0.01 | 99 | 1015.7 |
| 20260904074625 | 67 | 33 | 0.0 | 0.0 | 0.00 | 0.01 | 0.01 | 99 | 1015.5 |
| 20260904074120 | 67 | 33 | 0.0 | 0.0 | 0.00 | 0.01 | 0.01 | 99 | 1015.6 |
| 20260904073614 | 67 | 33 | 0.0 | 0.0 | 0.00 | 0.01 | 0.01 | 99 | 1015.7 |
| 20260904073111 | 67 | 32 | 0.0 | 0.0 | 0.00 | 0.01 | 0.01 | 99 | 1016.0 |
| 20260904072606 | 67 | 32 | 0.0 | 0.0 | 0.00 | 0.01 | 0.01 | 99 | 1015.7 |
| 20260904072101 | 67 | 32 | 0.0 | 0.0 | 0.00 | 0.01 | 0.01 | 99 | 1015.5 |
| 20260904071557 | 67 | 32 | 0.0 | 0.0 | 0.00 | 0.01 | 0.01 | 99 | 1015.7 |
| 20260904071052 | 67 | 32 | 0.0 | 0.0 | 0.00 | 0.01 | 0.01 | 99 | 1015.7 |
| 20260904070550 | 67 | 33 | 0.0 | 0.0 | 0.00 | 0.01 | 0.01 | 99 | 1015.6 |
| 20260904070045 | 67 | 32 | 0.0 | 0.0 | 0.00 | 0.01 | 0.01 | 99 | 1015.4 |
| 20260904065540 | 67 | 33 | 0.0 | 0.0 | 0.00 | 0.01 | 0.01 | 99 | 1015.5 |
| 20260904065037 | 67 | 32 | 0.0 | 0.0 | 0.00 | 0.01 | 0.01 | 99 | 1015.5 |
| 20260904064533 | 67 | 32 | 0.0 | 0.0 | 0.00 | 0.01 | 0.01 | 99 | 1015.9 |
| 20260904064033 | 67 | 32 | 0.0 | 0.0 | 0.00 | 0.01 | 0.01 | 99 | 1015.8 |
| 20260904063529 | 67 | 32 | 0.0 | 0.0 | 0.00 | 0.01 | 0.01 | 98 | 1015.8 |
| 20260904063024 | 67 | 32 | 0.0 | 0.0 | 0.00 | 0.01 | 0.01 | 98 | 1015.7 |
| 20260904062520 | 67 | 33 | 0.0 | 0.0 | 0.00 | 0.01 | 0.01 | 98 | 1015.9 |
| 20260904062015 | 67 | 33 | 0.0 | 0.0 | 0.00 | 0.01 | 0.01 | 98 | 1015.9 |
| 20260904061511 | 68 | 33 | 0.0 | 0.0 | 0.00 | 0.01 | 0.01 | 98 | 1015.9 |
| 20260904061007 | 68 | 33 | 0.0 | 0.0 | 0.00 | 0.01 | 0.01 | 98 | 1015.8 |
| 20260904060503 | 68 | 32 | 0.0 | 0.0 | 0.00 | 0.01 | 0.01 | 98 | 1016.1 |
| 20260904055959 | 68 | 32 | 0.0 | 1.0 | 0.00 | 0.01 | 0.01 | 98 | 1016.0 |
| 20260904055454 | 68 | 32 | 1.0 | 1.0 | 0.00 | 0.01 | 0.01 | 98 | 1016.0 |
| 20260904054949 | 68 | 32 | 1.0 | 1.0 | 0.00 | 0.01 | 0.01 | 98 | 1016.0 |
| 20260904054445 | 68 | 32 | 0.0 | 1.0 | 0.00 | 0.01 | 0.01 | 98 | 1016.2 |
| 20260904053941 | 68 | 33 | 0.0 | 0.0 | 0.00 | 0.01 | 0.01 | 98 | 1015.9 |
| 20260904053440 | 67 | 33 | 0.0 | 0.0 | 0.00 | 0.01 | 0.01 | 98 | 1016.2 |
| 20260904052936 | 68 | 33 | 0.0 | 0.0 | 0.00 | 0.01 | 0.01 | 98 | 1015.9 |
| 20260904052432 | 68 | 33 | 1.0 | 1.0 | 0.00 | 0.01 | 0.01 | 98 | 1015.9 |
| 20260904051928 | 68 | 33 | 0.0 | 0.0 | 0.00 | 0.01 | 0.01 | 98 | 1015.9 |
| 20260904051424 | 68 | 33 | 1.0 | 1.0 | 0.00 | 0.01 | 0.01 | 98 | 1015.9 |
| 20260904050918 | 68 | 32 | 0.0 | 0.0 | 0.00 | 0.01 | 0.01 | 98 | 1015.6 |
| 20260904050415 | 68 | 32 | 0.0 | 0.0 | 0.00 | 0.01 | 0.01 | 98 | 1015.6 |
| 20260904045914 | 68 | 40 | 0.0 | 1.0 | 0.00 | 0.01 | 0.01 | 98 | 1015.5 |
| 20260904045409 | 68 | 40 | 1.0 | 1.0 | 0.00 | 0.01 | 0.01 | 98 | 1015.4 |
| 20260904044909 | 68 | 22 | 1.0 | 1.0 | 0.00 | 0.01 | 0.01 | 98 | 1015.4 |
| 20260904044406 | 68 | 82 | 1.0 | 1.0 | 0.00 | 0.01 | 0.01 | 98 | 1015.4 |
| 20260904043902 | 68 | 82 | 0.0 | 0.0 | 0.00 | 0.01 | 0.01 | 97 | 1015.2 |
| 20260904043358 | 68 | 231 | 2.0 | 3.0 | 0.00 | 0.01 | 0.01 | 98 | 1015.2 |
| 20260904042853 | 68 | 90 | 0.0 | 1.0 | 0.00 | 0.01 | 0.01 | 97 | 1015.3 |
| 20260904042349 | 68 | 73 | 1.0 | 3.0 | 0.00 | 0.01 | 0.01 | 97 | 1015.4 |
| 20260904041844 | 68 | 268 | 1.0 | 3.0 | 0.05 | 0.01 | 0.01 | 97 | 1015.1 |
| 20260904041340 | 68 | 107 | 2.0 | 4.0 | 0.05 | 0.01 | 0.01 | 97 | 1015.2 |
| 20260904040836 | 68 | 160 | 5.0 | 5.0 | 0.00 | 0.00 | 0.00 | 97 | 1015.5 |
| 20260904040331 | 68 | 170 | 1.0 | 3.0 | 0.12 | 0.00 | 0.00 | 97 | 1015.7 |
| 20260904035827 | 68 | 4 | 1.0 | 1.0 | 0.38 | 0.73 | 0.73 | 97 | 1015.7 |
| 20260904035323 | 68 | 42 | 2.0 | 3.0 | 0.19 | 0.70 | 0.70 | 97 | 1015.7 |
| 20260904034821 | 68 | 320 | 2.0 | 4.0 | 0.00 | 0.67 | 0.67 | 97 | 1016.4 |
| 20260904034317 | 68 | 6 | 8.0 | 10.0 | 0.00 | 0.67 | 0.67 | 97 | 1016.0 |
| 20260904033813 | 68 | 338 | 1.0 | 3.0 | 0.00 | 0.67 | 0.67 | 97 | 1015.4 |
| 20260904033309 | 68 | 217 | 4.0 | 5.0 | 0.00 | 0.67 | 0.67 | 97 | 1015.2 |
| 20260904032805 | 68 | 137 | 1.0 | 7.0 | 0.00 | 0.67 | 0.67 | 97 | 1015.2 |
| 20260904032306 | 68 | 170 | 3.0 | 4.0 | 0.00 | 0.67 | 0.67 | 97 | 1015.2 |
| 20260904031759 | 68 | 224 | 1.0 | 8.0 | 0.00 | 0.67 | 0.67 | 97 | 1015.2 |
| 20260904031254 | 68 | 250 | 3.0 | 5.0 | 0.00 | 0.67 | 0.67 | 97 | 1015.3 |
| 20260904030750 | 68 | 143 | 1.0 | 7.0 | 0.00 | 0.67 | 0.67 | 97 | 1015.4 |
| 20260904030245 | 68 | 228 | 3.0 | 4.0 | 0.00 | 0.67 | 0.67 | 97 | 1015.3 |
| 20260904025736 | 68 | 98 | 3.0 | 4.0 | 0.00 | 0.67 | 0.67 | 97 | 1015.4 |
| 20260904025231 | 68 | 214 | 0.0 | 3.0 | 0.00 | 0.67 | 0.67 | 97 | 1015.4 |
| 20260904024726 | 68 | 338 | 2.0 | 3.0 | 0.00 | 0.67 | 0.67 | 97 | 1015.4 |
| 20260904024221 | 68 | 262 | 3.0 | 3.0 | 0.00 | 0.67 | 0.67 | 97 | 1015.6 |
| 20260904023712 | 68 | 210 | 2.0 | 5.0 | 0.00 | 0.67 | 0.67 | 97 | 1015.5 |
| 20260904023208 | 68 | 213 | 4.0 | 5.0 | 0.00 | 0.67 | 0.67 | 97 | 1015.3 |
| 20260904022707 | 68 | 231 | 3.0 | 5.0 | 0.00 | 0.67 | 0.67 | 98 | 1015.2 |
| 20260904022204 | 68 | 133 | 3.0 | 3.0 | 0.00 | 0.67 | 0.67 | 97 | 1015.3 |
| 20260904021659 | 68 | 315 | 0.0 | 4.0 | 0.00 | 0.67 | 0.67 | 97 | 1015.2 |
| 20260904021153 | 68 | 239 | 3.0 | 5.0 | 0.00 | 0.67 | 0.67 | 97 | 1015.4 |
| 20260904020645 | 68 | 168 | 2.0 | 5.0 | 0.00 | 0.67 | 0.67 | 97 | 1015.4 |
| 20260904020139 | 68 | 100 | 1.0 | 1.0 | 0.00 | 0.67 | 0.67 | 97 | 1015.6 |
| 20260904015638 | 68 | 224 | 2.0 | 3.0 | 0.00 | 0.67 | 0.67 | 97 | 1015.5 |
| 20260904015137 | 68 | 222 | 2.0 | 3.0 | 0.00 | 0.67 | 0.67 | 97 | 1015.4 |
| 20260904014636 | 68 | 127 | 1.0 | 1.0 | 0.00 | 0.67 | 0.67 | 97 | 1015.3 |
| 20260904014132 | 68 | 120 | 0.0 | 1.0 | 0.00 | 0.67 | 0.67 | 97 | 1015.3 |
| 20260904013629 | 68 | 122 | 1.0 | 3.0 | 0.00 | 0.67 | 0.67 | 97 | 1015.2 |
| 20260904013124 | 68 | 161 | 1.0 | 1.0 | 0.00 | 0.67 | 0.67 | 97 | 1015.1 |
| 20260904012620 | 68 | 95 | 0.0 | 1.0 | 0.00 | 0.67 | 0.67 | 97 | 1015.3 |
| 20260904012119 | 68 | 85 | 1.0 | 4.0 | 0.00 | 0.67 | 0.67 | 97 | 1015.2 |
| 20260904011618 | 68 | 93 | 1.0 | 1.0 | 0.00 | 0.67 | 0.67 | 97 | 1015.1 |
| 20260904011114 | 68 | 86 | 0.0 | 1.0 | 0.00 | 0.67 | 0.67 | 97 | 1015.0 |
| 20260904010609 | 68 | 335 | 1.0 | 1.0 | 0.00 | 0.67 | 0.67 | 97 | 1015.4 |
| 20260904010106 | 68 | 121 | 0.0 | 4.0 | 0.00 | 0.67 | 0.67 | 97 | 1015.6 |
| 20260904005600 | 68 | 105 | 2.0 | 3.0 | 0.00 | 0.67 | 0.67 | 97 | 1015.8 |
| 20260904005056 | 68 | 138 | 1.0 | 3.0 | 0.00 | 0.67 | 0.67 | 97 | 1015.6 |
| 20260904004551 | 68 | 63 | 0.0 | 0.0 | 0.00 | 0.67 | 0.67 | 96 | 1016.0 |
| 20260904004046 | 68 | 230 | 0.0 | 0.0 | 0.00 | 0.67 | 0.67 | 96 | 1016.0 |
| 20260904003542 | 68 | 116 | 3.0 | 3.0 | 0.00 | 0.67 | 0.67 | 96 | 1015.5 |
| 20260904003038 | 68 | 93 | 3.0 | 5.0 | 0.00 | 0.67 | 0.67 | 96 | 1015.6 |
| 20260904002533 | 68 | 76 | 1.0 | 1.0 | 0.00 | 0.67 | 0.67 | 96 | 1015.7 |
| 20260904002033 | 68 | 63 | 1.0 | 1.0 | 0.05 | 0.67 | 0.67 | 96 | 1015.9 |
| 20260904001529 | 68 | 76 | 3.0 | 5.0 | 0.05 | 0.67 | 0.67 | 96 | 1015.8 |
| 20260904001028 | 68 | 65 | 0.0 | 4.0 | 0.07 | 0.66 | 0.66 | 96 | 1016.1 |
| 20260904000527 | 68 | 79 | 0.0 | 4.0 | 0.19 | 0.66 | 0.66 | 95 | 1016.2 |
| 20260904000023 | 68 | 89 | 1.0 | 4.0 | 0.24 | 0.65 | 0.65 | 95 | 1016.4 |
| 20260903235518 | 68 | 16 | 3.0 | 5.0 | 0.24 | 0.63 | 0.63 | 95 | 1017.0 |
| 20260903235014 | 68 | 57 | 2.0 | 5.0 | 0.17 | 0.61 | 0.61 | 95 | 1017.3 |